[Date Prev][Date Next][Thread Prev][Thread Next] - [Date Index][Thread Index][Author Index]

2 Line ISS Keps 8-22



ISS
1 25544U 98067A   04235.34226874  .00022203  00000-0  18214-3 0  5028
2 25544  51.6341 347.9996 0008033 120.9607 280.5371 15.70361710328716
----
Via the sarex mailing list at AMSAT.ORG courtesy of AMSAT-NA.
To unsubscribe, send "unsubscribe sarex" to Majordomo@amsat.org



AMSAT Top AMSAT Home